Regional Weather Roundup
Issued by NWS Newport/Morehead, NC

Current Version | Previous Version | Text Only | Print | Product List | Glossary On
Versions: 1 2 3 4 5 6 7 8 9 10 11 12 13 14 15 16 17 18 19 20 21 22 23 24 25 26 27 28 29 30 31 32 33 34 35 36 37 38 39 40 41 42 43 44 45 46 47 48 49 50
000
ASUS42 KMHX 290810
RWRMHX
WEATHER ROUNDUP FOR EASTERN NORTH CAROLINA
NATIONAL WEATHER SERVICE NEWPORT/MOREHEAD CITY NC
400 AM EDT TUE JUL 29 2014

NOTE: "FAIR" INDICATES FEW OR NO CLOUDS BELOW 12,000 FEET
WITH NO SIGNIFICANT WEATHER AND/OR OBSTRUCTIONS TO VISIBILITY

NCZ015>017-031-032-045>047-102-103-290900-
NORTH COAST

CITY           SKY/WX    TMP DP  RH WIND       PRES   REMARKS
EDENTON        CLEAR     67  60  76 N6        29.85S
ELIZABETH CITY CLEAR     70  61  73 NW10      29.84S
KITTY HAWK     SUNNY     73  62  68 NW5       29.83R
MANTEO         NOT AVBL

$$

NCZ045>047-081-094-103-104-290900-
CENTRAL COAST

CITY           SKY/WX    TMP DP  RH WIND       PRES   REMARKS
FRISCO         CLEAR     78  64  61 VRB5      29.82S
SWANQUARTER      N/A     68 N/A N/A N5        29.79S

$$

NCZ095-097-098-100-101-290900-
SOUTHERN COAST

CITY           SKY/WX    TMP DP  RH WIND       PRES   REMARKS
BEAUFORT       MOCLDY    73  67  81 N6        29.84R
CEDAR ISLAND     N/A     79 N/A N/A N10G17    29.85S
JACKSONVILLE   MOCLDY    72  64  76 N9        29.84R
NEWPORT        NOT AVBL
PINEY ISLAND   MOSUNNY   77  68  73 N7        29.83R
WILMINGTON     PTCLDY    72  66  81 NE6       29.85R


$$

NCZ011>013-027>030-043-044-078>080-089-090>093-098-290900-
COASTAL PLAIN

CITY           SKY/WX    TMP DP  RH WIND       PRES   REMARKS
AHOSKIE        CLEAR     62  59  92 CALM      29.87R
CLINTON        MOCLDY    71  63  76 CALM      29.87R
ELIZABETHTOWN  MOCLDY    70  65  85 CALM      29.86R
GOLDSBORO      MOCLDY    71  62  74 N6        29.84S
GREENVILLE     MOCLDY    66  61  82 N3        29.88S
HAVELOCK       PTCLDY    73  64  73 N8        29.85R
KENANSVILLE    MOCLDY    70  61  73 CALM      29.87R
KINSTON        CLEAR     69  61  75 N5        29.86S
NEW BERN       PTCLDY    72  62  71 N6        29.86R
RICHLANDS      MOCLDY    70  63  78 CALM      29.86R
ROANOKE RAPIDS NOT AVBL
ROCKY MOUNT    MOCLDY    67  58  72 N6        29.87R
WASHINGTON     PTCLDY    67  60  78 N3        29.85S
WHITEVILLE     MOCLDY    71  66  84 CALM      29.86R

$$

AMZ130-135-150-152-154-156-158-170-250-252-270-ANZ085-086-088-633-658-670-290900-
MARINE OBSERVATIONS

STATION/POSITION TIME  TEMP    WIND        PRES    WAVE   SWELL
                       AIR SEA DIR/SP/G            HT/PER HT/PER
                 (UTC) (F)     (DEG/KT/KT) (MB)    (FT/S) (FT/S)
CHESAPEAKE LIGHT NOT AVBL
BUOY 44014       0800   76 78  330/ 14/ 17 1009.3    3/ 4   2/ 8
DUCK             0800   71 69  330/ 11/ 12 1009.5
2E DUCK          0800                        N/A     2/17
OREGON INLET     0800   74 79  330/  5/  7 1010.1
BUOY 44095       0800      78                N/A     3/ 8
20E OREGON INLET NOT AVBL
HATTERAS CG      0800   80 82   20/  4/ 13 1010.3
DIAMOND BUOY     0800          VRB  8/ 10  1009.7    3/ 7   3/ 7
CAPE LOOKOUT     0700   77     360/ 10/ 11 1009.7
BEAUFORT LAB     0800   75 82   10/  6/  8 1009.9
30 SE NEW RIVER  0800   81 81   30/ 16/ 17 1010.3    4/ 6   2/ 7
5 SE WRIGHTSVILL 0700   75 82   20/ 16/ 17   N/A
BUOY 41002       0750   82 81  240/ 17/ 21 1012.6    7/ 7
BUOY 41004       0800   83 84  360/ 12/ 14 1008.8    4/ 6   3/ 6

$$



USA.gov is the U.S. government's official web portal to all federal, state and local government web resources and services.